Location: Fort Wayne
(41.1310°N, 85.1290°W)
Time: 13:03:26
(UTC-05:00)

OPAL - Visible Passes

Search period start: 24 February 2018 00:00
Search period end: 06 March 2018 00:00
Orbit: 744 x 795 km, 100.2° (Epoch: 24 February)

Date Brightness Start Highest point End Pass type
(mag) Time Alt. Az. Time Alt. Az. Time Alt. Az.
24 Feb 9.2 19:47:51 16° NE 19:47:51 16° NE 19:50:14 10° NNE visible
24 Feb 9.2 21:28:08 27° NNW 21:28:08 27° NNW 21:30:31 10° NNW visible
25 Feb 8.6 20:52:03 33° N 20:52:03 33° N 20:54:59 10° N visible
25 Feb 10.5 22:32:20 11° NW 22:32:20 11° NW 22:32:29 10° NW visible
26 Feb 8.8 20:15:58 24° NE 20:15:58 24° NE 20:18:59 10° N visible
26 Feb 9.7 21:56:15 21° NW 21:56:15 21° NW 21:58:09 10° NNW visible
27 Feb 9.3 19:39:53 14° NE 19:39:53 14° NE 19:42:07 10° NNE visible
27 Feb 8.9 21:20:10 33° NNW 21:20:10 33° NNW 21:22:58 10° NNW visible
28 Feb 8.5 20:44:04 34° NNE 20:44:04 34° NNE 20:47:18 10° N visible
28 Feb 10.3 22:24:21 14° NW 22:24:21 14° NW 22:25:22 10° NW visible
01 Mar 8.9 20:07:59 22° NE 20:07:59 22° NE 20:11:09 10° NNE visible
01 Mar 9.4 21:48:17 26° NW 21:48:17 26° NW 21:50:43 10° NNW visible
02 Mar 9.4 19:31:55 11° ENE 19:32:13 11° NE 19:33:39 10° NE visible
02 Mar 8.5 21:12:11 39° N 21:12:11 39° N 21:15:23 10° NNW visible
03 Mar 8.5 20:36:07 33° NE 20:36:07 33° NE 20:39:36 10° N visible
03 Mar 10.0 22:16:24 18° NW 22:16:24 18° NW 22:18:07 10° NW visible
04 Mar 9.0 20:00:02 19° NE 20:00:02 19° NE 20:03:15 10° NNE visible
04 Mar 9.0 21:40:19 33° NW 21:40:19 33° NW 21:43:13 10° NNW visible
05 Mar 8.3 21:04:14 43° N 21:04:14 43° N 21:07:46 10° N visible
05 Mar 10.5 22:44:31 11° WNW 22:44:31 11° WNW 22:44:51 10° WNW visible
